Zadar, Croatia

6:14 PM CEST on September 18, 2018 (GMT +0200)
Zemunik

Weather History for LDZD - January, 2018

Change the Weather History Date:

Saturday, January 13, 2018

  Actual Average Record
Temperature  
Mean Temperature 48 °F -  
Max Temperature 54 °F - - ()
Min Temperature 42 °F - - ()
Degree Days  
Heating Degree Days 17    
Moisture  
Dew Point 32 °F    
Average Humidity 55    
Maximum Humidity 66    
Minimum Humidity 32    
Precipitation  
Precipitation 0.00 in - - ()
Sea Level Pressure  
Sea Level Pressure 30.07 in    
Wind  
Wind Speed 8 mph ()    
Max Wind Speed 16 mph    
Max Gust Speed -    
Visibility 9.7 miles    
Events      
T = Trace of Precipitation, MM = Missing Value Source: Averaged Metar Reports

Daily Weather History Graph

Daily Weather History Graph

Search for Another Location

Airport or City:

Astronomy

Jan. 13, 2018 Rise Set
Actual Time 7:31 AM CET 4:43 PM CET
Civil Twilight 6:59 AM CET 5:15 PM CET
Nautical Twilight 6:23 AM CET 5:51 PM CET
Astronomical Twilight 5:48 AM CET 6:26 PM CET
Moon 4:15 AM CET (1/13) 2:09 PM CET (1/13)
Length of Visible Light 10h 16m
Length of Day
9h 11m
Waning Crescent, 11% of the Moon is Illuminated
Jan 13
Waning Crescent
Jan 17
New
Jan 24
First Quarter
Jan 31
Full
Feb 7
Last Quarter

Hourly Weather History & Observations

Time (CET) Temp. Windchill Dew Point Humidity Pressure Visibility Wind Dir Wind Speed Gust Speed Precip Events Conditions
12:00 AM 46.4 °F 41.9 °F 32.0 °F 57% 30.09 in - ENE 9.2 mph - N/A   Clear
12:30 AM 46.4 °F 42.9 °F 32.0 °F 57% 30.09 in - ENE 6.9 mph - N/A   Clear
1:00 AM 46 °F - 33 °F 48% 30.11 in 19 mi ENE 6.7 mph - -  
1:00 AM 46.4 °F 42.4 °F 33.8 °F 62% 30.09 in - ENE 8.1 mph - N/A   Clear
1:30 AM 44.6 °F 40.7 °F 33.8 °F 66% 30.09 in - NE 6.9 mph - N/A   Clear
2:00 AM 46.4 °F 43.5 °F 33.8 °F 62% 30.09 in 6.2 mi ENE 5.8 mph - N/A   Scattered Clouds
2:30 AM 46.4 °F 42.9 °F 33.8 °F 62% 30.09 in 6.2 mi NE 6.9 mph - N/A   Scattered Clouds
3:00 AM 44.6 °F 40.2 °F 32.0 °F 61% 30.06 in 6.2 mi NE 8.1 mph - N/A   Partly Cloudy
3:30 AM 44.6 °F 40.7 °F 33.8 °F 66% 30.06 in 6.2 mi ENE 6.9 mph - N/A   Partly Cloudy
4:00 AM 45 °F - 33 °F 51% 30.09 in 19 mi ENE 8.9 mph - -   Scattered Clouds
4:00 AM 44.6 °F 40.2 °F 33.8 °F 66% 30.06 in 6.2 mi ENE 8.1 mph - N/A   Partly Cloudy
4:30 AM 44.6 °F 39.2 °F 33.8 °F 66% 30.06 in 6.2 mi ENE 10.4 mph - N/A   Partly Cloudy
5:00 AM 44.6 °F 39.7 °F 33.8 °F 66% 30.06 in 6.2 mi East 9.2 mph - N/A   Partly Cloudy
5:30 AM 44.6 °F 40.2 °F 33.8 °F 66% 30.06 in 6.2 mi ENE 8.1 mph - N/A   Partly Cloudy
6:00 AM 44.6 °F 39.7 °F 32.0 °F 61% 30.06 in - ENE 9.2 mph - N/A   Clear
6:30 AM 44.6 °F 40.2 °F 32.0 °F 61% 30.06 in - ENE 8.1 mph - N/A   Clear
7:00 AM 44 °F - 33 °F 53% 30.10 in 19 mi East 6.7 mph - -  
7:00 AM 44.6 °F 40.7 °F 32.0 °F 61% 30.06 in - East 6.9 mph - N/A   Clear
7:30 AM 44.6 °F 39.2 °F 32.0 °F 61% 30.06 in - East 10.4 mph - N/A   Clear
8:00 AM 44.6 °F 40.7 °F 32.0 °F 61% 30.06 in - East 6.9 mph - N/A   Clear
8:30 AM 48.2 °F - 32.0 °F 54% 30.06 in - ENE 9.2 mph - N/A   Clear
9:00 AM 50.0 °F - 32.0 °F 50% 30.06 in - NE 5.8 mph - N/A   Clear
9:30 AM 50.0 °F - 32.0 °F 50% 30.06 in 6.2 mi ENE 9.2 mph - N/A   Partly Cloudy
10:00 AM 51 °F - 32 °F 35% 30.09 in 19 mi ENE 11.2 mph - -   Scattered Clouds
10:00 AM 51.8 °F - 32.0 °F 47% 30.06 in 6.2 mi NE 11.5 mph - N/A   Partly Cloudy
10:30 AM 51.8 °F - 32.0 °F 47% 30.06 in 6.2 mi ENE 10.4 mph - N/A   Partly Cloudy
11:00 AM 51.8 °F - 32.0 °F 47% 30.06 in 6.2 mi ENE 11.5 mph - N/A   Partly Cloudy
11:30 AM 51.8 °F - 32.0 °F 47% 30.06 in 6.2 mi ENE 12.7 mph - N/A   Partly Cloudy
12:00 PM 53.6 °F - 32.0 °F 44% 30.06 in 6.2 mi ENE 11.5 mph - N/A   Partly Cloudy
12:30 PM 53.6 °F - 32.0 °F 44% 30.06 in 6.2 mi ENE 12.7 mph - N/A   Partly Cloudy
1:00 PM 53 °F - 32 °F 32% 30.07 in 19 mi ENE 15.7 mph - -   Scattered Clouds
1:00 PM 53.6 °F - 32.0 °F 44% 30.04 in 6.2 mi ENE 13.8 mph - N/A   Partly Cloudy
1:30 PM 53.6 °F - 32.0 °F 44% 30.04 in 6.2 mi ENE 12.7 mph - N/A   Partly Cloudy
2:00 PM 53.6 °F - 32.0 °F 44% 30.04 in 6.2 mi ENE 12.7 mph - N/A   Partly Cloudy
2:30 PM 51.8 °F - 32.0 °F 47% 30.04 in - ENE 12.7 mph - N/A   Clear
3:00 PM 51.8 °F - 32.0 °F 47% 30.04 in - ENE 11.5 mph - N/A   Clear
3:30 PM 51.8 °F - 32.0 °F 47% 30.04 in - ENE 9.2 mph - N/A   Clear
4:00 PM 51 °F - 32 °F 36% 30.06 in 19 mi ENE 8.9 mph - -  
4:00 PM 50.0 °F - 32.0 °F 50% 30.04 in - ENE 9.2 mph - N/A   Clear
4:30 PM 48.2 °F - 32.0 °F 54% 30.04 in - NE 8.1 mph - N/A   Clear
5:00 PM 46.4 °F 42.9 °F 32.0 °F 57% 30.06 in - NE 6.9 mph - N/A   Clear
5:30 PM 44.6 °F 40.2 °F 32.0 °F 61% 30.06 in - NE 8.1 mph - N/A   Clear
6:00 PM 46.4 °F 42.4 °F 32.0 °F 57% 30.06 in - NE 8.1 mph - N/A   Clear
6:30 PM 44.6 °F 39.7 °F 32.0 °F 61% 30.06 in - ENE 9.2 mph - N/A   Clear
7:00 PM 46 °F - 31 °F 44% 30.10 in 19 mi NE 11.2 mph - -  
7:00 PM 44.6 °F 39.7 °F 32.0 °F 61% 30.06 in - NE 9.2 mph - N/A   Clear
7:30 PM 44.6 °F 40.2 °F 32.0 °F 61% 30.09 in - NE 8.1 mph - N/A   Clear
8:00 PM 44.6 °F 40.7 °F 32.0 °F 61% 30.09 in - NE 6.9 mph - N/A   Clear
8:30 PM 42.8 °F 38.6 °F 32.0 °F 66% 30.09 in - NE 6.9 mph - N/A   Clear
9:00 PM 42.8 °F 39.3 °F 30.2 °F 61% 30.09 in - NE 5.8 mph - N/A   Clear
9:30 PM 42.8 °F 39.3 °F 30.2 °F 61% 30.09 in - NE 5.8 mph - N/A   Clear
10:00 PM 44 °F - 31 °F 49% 30.11 in 19 mi NE 6.7 mph - -  
10:00 PM 42.8 °F 38.6 °F 32.0 °F 66% 30.09 in - NE 6.9 mph - N/A   Clear
10:30 PM 44.6 °F 40.7 °F 32.0 °F 61% 30.09 in 6.2 mi ENE 6.9 mph - N/A   Partly Cloudy
11:00 PM 44.6 °F 40.2 °F 30.2 °F 57% 30.09 in 6.2 mi ENE 8.1 mph - N/A   Scattered Clouds
11:30 PM 44.6 °F 40.2 °F 30.2 °F 57% 30.09 in 6.2 mi ENE 8.1 mph - N/A   Scattered Clouds